Location: Croydon
(51.3762°N, 0.0982°W)
Time: 19:06:37
(UTC+01:00)

VELOX 1 - Pass Details

Date: 30 April 2019
Orbit: 629 x 644 km, 98.2° (Epoch: 21 May)

Event Time Altitude Azimuth Distance (km) Brightness Sun altitude
Exits shadow 00:35:16 15° 89° (E) 1,679 ? -23.8°
Maximum altitude 00:37:03 19° 59° (ENE) 1,491 ? -23.9°
Drops below altitude 10° 00:40:11 10° 13° (NNE) 2,024 ? -23.9°
Sets 00:42:52 0° 356° (N) 2,939 ? -23.9°
